Theta_e
347 349 347 342 344 346 345 348 355 356 356 357 357 355 353 354 354 354 353 352 354 355 356 356 355 356 357 357 354 348 348 341 342 346 347 346 342 335 328 325 322 324 324
349 350 348 346 347 350 353 354 355 354 353 351 352 354 356 354 357 357 361 359 357 356 353 354 354 355 354 356 354 358 352 348 348 347 344 343 340 335 332 324 324 326 326
349 353 353 355 357 358 359 359 358 358 358 357 356 350 350 350 352 354 357 360 359 358 358 359 359 359 358 355 353 356 353 352 348 348 345 344 341 338 334 328 327 328 328
354 358 359 359 358 357 358 358 357 358 357 350 348 348 347 343 341 342 339 348 353 351 355 355 357 357 356 357 357 354 355 355 353 351 348 344 344 340 336 331 328 327 328
360 359 356 356 357 355 354 346 339 337 338 338 338 339 337 336 336 339 334 332 335 352 354 358 348 334 336 347 355 357 358 358 357 357 350 346 345 342 338 335 330 328 329
354 351 351 351 338 344 341 339 338 337 338 335 335 337 337 335 325 325 324 325 327 327 323 321 321 322 322 323 332 350 355 358 355 355 354 350 348 343 339 336 331 330 330
346 347 344 342 339 339 339 340 337 336 336 336 333 327 326 326 324 317 318 323 324 325 320 314 314 314 316 321 323 339 342 346 350 355 356 353 349 344 340 337 333 332 331
333 332 333 332 329 326 328 329 325 320 320 318 318 318 320 316 314 315 315 316 317 316 314 313 314 314 315 317 318 330 347 351 354 356 356 353 348 344 342 338 335 333 331
331 330 329 328 324 320 316 315 315 315 314 314 314 313 314 313 314 315 316 316 316 315 315 318 323 324 325 327 334 337 339 345 350 352 355 353 348 345 341 340 334 333 331
330 328 326 323 319 315 314 313 313 313 313 314 314 316 318 319 320 321 322 326 326 325 324 326 329 330 329 329 328 327 326 327 345 350 350 352 349 344 340 339 336 334 333
326 324 321 316 315 315 314 315 315 316 317 318 320 321 323 325 325 326 327 327 327 328 327 327 328 330 331 332 331 330 330 328 326 348 345 349 347 341 340 337 336 334 331
322 318 317 317 316 315 315 316 317 319 321 320 321 323 325 326 327 328 328 327 325 325 325 329 328 327 335 334 333 329 331 332 337 342 340 346 344 343 340 337 336 330 327
324 323 322 320 319 320 320 320 321 322 321 320 320 320 320 322 325 327 327 326 326 325 323 323 329 336 337 336 333 329 326 324 321 329 337 338 343 345 341 336 337 331 328
325 323 323 322 321 321 321 323 323 323 322 321 321 320 319 319 319 319 320 323 325 324 324 323 322 325 327 329 330 331 327 328 324 320 320 331 336 343 342 338 336 334 329
324 324 323 321 320 319 318 319 319 319 321 323 322 320 318 319 319 321 322 322 323 323 324 324 324 323 323 325 326 327 328 326 326 322 317 320 337 338 341 339 335 335 330
320 319 318 317 318 319 320 320 320 320 321 322 321 321 320 320 320 321 321 323 323 323 323 323 324 324 323 323 322 322 322 319 317 319 320 324 334 337 339 339 334 330 331
316 317 317 319 319 320 319 319 319 319 320 319 321 320 321 322 322 321 322 322 321 322 323 322 322 323 323 323 324 325 325 323 322 325 326 327 333 333 339 338 335 333 329
313 313 313 317 318 319 319 319 318 319 320 319 320 321 321 321 321 321 321 321 321 321 321 321 321 321 323 324 324 325 325 325 326 325 326 328 331 336 337 336 338 336 334
314 313 313 314 315 316 317 318 319 318 319 320 320 320 320 320 320 320 320 320 320 321 321 321 321 321 322 324 325 325 325 325 325 326 326 327 329 333 331 335 338 338 338
314 314 312 314 314 314 314 316 318 319 319 318 318 319 318 318 318 318 318 319 319 320 321 321 321 322 323 322 323 324 323 325 326 327 326 326 327 329 331 337 337 338 338
314 315 313 312 313 313 313 315 316 318 317 316 316 315 313 314 315 316 317 318 317 318 319 320 321 321 322 322 323 324 322 322 326 326 325 326 326 327 332 334 337 337 338
315 315 314 313 312 313 314 315 315 316 316 315 313 313 312 313 313 313 315 316 316 317 316 318 320 321 321 321 322 323 323 321 323 325 326 326 327 328 329 331 332 335 335
315 315 313 312 311 312 313 312 312 311 311 311 311 312 312 312 312 312 313 315 316 317 317 319 321 321 322 322 323 323 323 323 324 322 322 323 323 323 325 330 330 325 334
315 315 312 313 312 311 312 311 312 312 312 311 312 312 312 312 312 312 312 313 314 316 318 319 320 322 321 323 324 324 323 323 323 322 320 320 322 323 324 327 328 327 325
314 314 313 313 314 314 313 313 313 314 313 311 311 312 312 313 313 312 311 312 312 314 316 317 319 319 320 320 321 321 322 322 322 321 319 319 322 322 323 327 329 327 329
314 314 315 315 315 315 314 314 314 314 312 310 311 312 312 312 312 312 312 312 313 314 316 317 318 318 319 319 320 320 321 322 322 322 322 322 323 323 323 327 329 328 331
Wind_Speed
29 25 21 21 20 17 16 15 11 12 13 14 15 16 18 22 23 24 22 20 19 18 17 15 13 11 13 15 16 16 18 19 21 17 16 13 14 14 11 10 8 8 9
29 28 24 20 17 15 15 15 16 16 16 15 14 15 18 19 17 21 20 17 16 16 15 13 11 10 12 17 19 19 17 17 21 17 16 13 11 11 11 7 4 3 8
32 25 24 23 21 20 19 18 17 15 14 13 14 15 14 13 15 19 24 19 14 11 11 11 11 11 12 13 17 20 19 18 20 21 20 17 12 12 12 7 7 6 7
30 27 25 23 21 18 16 13 14 14 14 13 13 13 15 15 24 20 47 24 15 12 16 12 12 13 12 13 16 18 19 20 21 22 24 21 16 13 15 11 10 8 9
27 27 23 20 12 9 6 6 7 8 7 9 9 14 12 11 28 19 24 24 19 12 13 16 17 18 18 17 19 21 21 22 24 26 25 24 22 20 16 12 10 10 10
21 17 15 9 21 18 8 18 17 20 19 12 11 13 15 20 15 19 22 22 18 18 18 17 17 17 18 19 20 23 24 25 26 25 28 29 26 25 16 19 15 13 14
6 7 9 12 9 13 13 10 7 7 11 13 13 11 12 13 20 25 25 24 24 25 25 26 25 22 19 21 24 23 23 24 25 24 29 30 28 23 19 22 22 17 14
12 10 8 5 4 4 5 4 5 8 9 11 12 14 16 19 21 23 24 26 29 31 31 29 27 25 21 21 24 26 25 23 22 26 26 25 25 21 21 19 22 17 15
4 1 2 5 7 9 11 12 13 15 15 16 17 18 20 21 22 24 24 26 27 29 27 25 23 20 15 16 19 23 25 24 24 25 25 26 25 25 22 21 26 22 21
1 5 8 12 14 14 15 16 17 19 21 21 22 21 21 21 20 18 14 19 23 23 21 18 16 17 14 17 19 22 25 25 23 27 26 26 27 27 22 21 24 22 21
8 10 13 15 15 16 18 19 20 20 20 20 20 20 19 17 16 13 14 18 22 24 26 21 20 19 19 21 22 24 26 25 28 27 25 25 24 24 22 19 22 21 21
11 12 14 15 16 16 18 18 18 19 21 22 23 23 21 19 16 16 16 17 20 24 25 20 21 19 17 19 20 14 15 19 20 24 29 26 26 24 25 22 22 18 19
13 15 16 16 15 14 16 18 18 20 22 22 25 28 30 30 29 23 22 24 27 30 29 23 18 14 13 15 16 13 15 17 15 19 25 27 31 27 25 23 23 20 22
17 18 17 18 19 18 17 19 21 20 22 25 26 27 28 27 27 24 25 29 27 30 32 29 26 24 26 22 23 22 22 22 22 22 24 28 31 31 27 23 28 26 27
18 18 18 19 20 22 20 19 21 20 19 20 25 24 25 26 23 19 23 23 23 24 29 29 26 25 27 30 30 32 31 30 31 29 28 26 26 32 30 26 28 29 30
21 20 19 18 16 15 16 16 14 18 19 21 22 20 20 19 18 20 20 20 22 24 29 31 30 25 24 25 26 26 28 28 28 31 30 22 25 30 29 28 29 29 33
14 15 15 16 17 17 15 16 22 21 18 19 17 15 16 17 20 24 21 24 24 24 26 29 29 28 28 27 25 24 23 25 29 31 30 24 23 27 31 33 32 31 29
14 17 16 16 18 19 18 17 19 22 21 19 14 15 18 20 20 20 22 23 23 24 26 28 30 30 28 27 24 25 27 28 26 27 27 28 23 24 26 37 37 37 35
15 24 22 14 17 19 19 19 19 19 19 21 21 23 23 20 20 21 22 23 25 26 25 25 26 27 27 26 25 27 30 28 24 23 25 24 23 25 29 32 44 38 40
16 23 21 16 17 20 20 20 19 19 20 22 23 25 28 30 29 29 29 30 29 27 25 26 26 25 25 26 28 26 24 24 26 23 25 27 24 24 25 30 27 44 39
21 22 22 22 18 20 21 21 20 18 20 23 25 27 27 26 29 30 30 27 26 27 28 30 30 27 27 27 26 28 28 26 25 24 25 25 25 24 23 27 32 38 44
21 21 23 24 23 19 19 18 19 20 23 24 31 31 28 25 25 25 26 27 28 27 28 27 29 28 28 27 26 25 25 25 26 27 21 20 21 22 24 21 23 32 48
21 22 21 23 22 19 17 17 18 20 24 30 30 28 28 27 27 27 27 26 24 25 23 23 25 25 23 25 22 22 23 25 22 23 20 20 22 23 21 20 20 22 19
21 20 18 19 22 20 15 17 20 22 29 33 27 25 25 26 26 27 26 26 25 21 21 17 13 16 18 20 21 23 26 26 31 31 30 28 27 25 23 21 18 16 24
21 21 19 20 22 23 24 24 25 27 31 34 24 22 20 21 24 25 24 21 21 23 24 22 25 25 28 27 26 27 30 29 31 32 34 36 34 31 26 24 23 20 29
20 19 21 23 26 25 25 29 27 28 29 27 22 20 19 21 25 25 21 19 19 19 19 21 22 23 23 23 23 23 25 25 27 30 34 36 36 34 29 26 25 26 28
Wind_Direction
227 224 218 214 216 219 222 224 236 248 252 259 271 284 284 287 286 283 278 272 266 263 260 256 256 265 259 265 264 275 272 298 301 297 299 295 300 305 308 314 314 324 333
219 219 213 211 210 206 203 208 218 225 236 247 257 272 281 282 283 292 290 283 275 271 269 271 256 257 257 262 268 273 276 281 295 282 292 295 290 290 301 306 312 310 342
216 209 198 198 200 198 198 210 225 239 249 260 280 281 290 303 312 299 296 279 273 265 262 263 277 271 266 266 268 273 284 285 289 275 286 285 275 277 284 281 282 294 315
202 196 199 195 198 206 212 221 253 261 281 296 285 284 296 312 330 294 323 320 274 280 280 278 284 282 275 270 269 269 276 280 282 281 275 277 271 269 269 268 273 274 294
184 194 196 202 188 201 207 350 332 307 293 304 307 286 298 306 312 305 290 313 323 285 278 286 287 284 279 272 266 268 270 272 277 275 270 269 266 260 269 271 260 257 277
187 171 188 186 201 212 214 215 228 285 285 297 295 285 287 277 282 288 290 295 302 299 299 295 289 288 287 280 269 265 266 268 270 271 274 274 274 270 264 257 250 249 263
128 174 183 170 208 276 283 273 293 270 285 276 262 270 278 278 279 287 293 293 290 288 292 298 292 290 282 273 271 268 265 269 270 269 274 276 273 274 260 253 243 255 267
139 158 185 215 252 321 356 329 286 274 273 278 287 293 283 282 284 287 289 290 290 291 294 294 295 295 288 277 274 273 269 275 277 274 277 282 268 267 259 260 258 264 248
120 144 298 305 306 309 307 301 297 296 298 298 298 296 298 294 295 296 299 299 298 294 295 298 299 294 293 289 287 292 283 274 274 281 276 276 260 258 260 248 237 233 234
239 295 302 303 305 306 308 308 308 308 307 306 306 309 312 310 309 311 308 296 296 297 291 288 293 293 285 290 296 304 304 283 276 273 279 276 262 255 253 245 245 238 239
273 285 294 298 306 312 313 314 314 313 311 313 310 308 305 307 307 298 309 314 320 319 309 294 288 291 286 287 295 302 302 291 274 271 277 276 261 252 246 240 238 241 236
285 296 297 304 310 309 306 305 305 309 311 312 313 313 314 313 308 300 295 300 307 316 324 322 303 295 281 282 290 305 310 301 292 273 269 275 261 246 243 238 241 239 227
307 305 310 311 312 308 304 304 304 306 309 309 311 307 304 298 294 287 284 293 295 302 308 308 309 301 274 260 260 276 301 317 318 295 277 268 270 258 248 237 235 228 219
299 302 305 303 303 298 293 289 290 293 296 302 306 309 309 306 307 314 304 282 287 289 294 299 296 283 279 280 280 283 294 303 306 312 304 292 270 250 242 236 230 228 220
292 295 297 295 294 294 293 285 283 285 293 297 305 313 312 306 315 311 316 307 286 289 294 298 300 293 287 273 273 277 286 295 292 295 300 296 270 263 242 236 233 229 226
292 296 299 300 300 301 303 302 292 289 288 288 291 295 306 302 305 306 298 295 300 296 290 292 295 297 291 285 281 275 271 272 278 286 293 283 270 262 260 238 230 228 224
308 315 314 315 312 319 315 318 318 311 306 301 292 285 293 297 301 307 295 289 294 294 289 288 290 290 291 289 278 281 284 275 269 277 284 282 269 264 248 244 229 226 222
7 353 328 320 317 318 317 316 317 318 324 328 323 315 304 301 303 300 297 297 294 292 291 289 286 286 284 284 279 280 282 285 285 279 282 282 266 256 254 239 236 227 226
357 0 349 327 325 328 320 317 316 316 321 323 320 313 316 313 307 303 302 300 301 299 299 294 288 286 283 280 280 283 284 283 283 288 283 280 270 257 259 258 222 232 229
349 357 351 341 337 330 326 319 316 320 318 318 316 317 315 314 312 308 306 303 303 301 297 293 295 290 290 277 272 278 281 281 275 281 279 276 275 269 256 254 256 227 231
348 346 346 345 336 334 327 325 317 319 321 320 321 321 319 316 312 309 308 306 307 300 292 291 290 287 285 286 271 274 268 273 267 273 277 273 273 275 259 255 254 245 238
329 328 336 338 336 327 328 322 317 313 322 323 322 320 321 318 313 309 308 308 308 301 297 289 288 283 282 287 276 277 267 274 263 270 264 266 270 276 272 274 267 263 228
325 327 328 334 337 334 333 337 338 336 333 326 322 325 325 319 315 310 309 307 305 307 306 296 294 287 280 279 269 264 265 265 269 259 265 269 273 270 274 278 259 266 254
320 317 313 321 334 336 325 330 334 336 335 329 326 322 318 317 316 314 310 306 304 301 293 298 294 278 278 272 271 264 262 262 264 262 268 275 275 268 263 260 259 253 244
317 311 303 309 309 322 319 322 314 313 327 328 326 325 326 330 326 322 316 310 304 297 297 297 289 288 287 283 276 269 269 270 265 263 262 264 269 264 253 247 248 244 233
310 309 307 314 310 307 318 318 313 311 319 325 325 321 325 333 339 335 324 317 315 308 302 304 301 297 293 292 290 284 277 272 267 262 261 262 262 255 241 240 239 246 236